Location: Joplin, MO
(37.0842°N, 94.5133°W)
Time: 09:33:11
(UTC+02:00)

Transit 2A - Pass Details

Date: 30 March 2023
Orbit: 591 x 964 km, 66.7° (Epoch: 03 June)

Event Time Altitude Azimuth Distance (km) Brightness Sun altitude
Exits shadow 12:19:32 46° 258° (WSW) 1,076 6.3 -21.6°
Maximum altitude 12:20:43 56° 302° (WNW) 977 6.3 -21.4°
Drops below altitude 10° 12:26:32 10° 20° (NNE) 2,555 9.2 -20.3°
Sets 12:29:13 0° 25° (NNE) 3,546 10.1 -19.8°
